Presure
188 164 175 192 193 178 197 184 224 181 221 229 251 217 215 211 211 204 203 211 211 204 198 202 175 153 199 197 204 153 177 194 192 160 170 144 211 205 201 172 198 206 209 203 200
197 193 191 196 183 184 188 221 198 125 215 201 211 222 214 208 202 210 204 202 161 178 179 193 192 193 201 189 170 196 182 172 169 174 184 193 204 203 178 207 207 179 182 184 183
170 199 185 194 190 187 181 192 183 196 212 186 224 194 224 211 209 198 213 182 211 196 209 182 205 177 195 159 192 202 198 209 148 193 194 192 197 201 208 214 187 196 190 192 194
187 180 176 190 183 196 186 182 190 190 184 204 208 229 221 223 209 204 188 199 197 196 199 197 188 187 181 204 206 194 185 187 190 186 187 196 192 178 194 186 191 190 197 198 189
185 179 188 206 197 203 212 205 211 196 214 210 198 214 217 232 220 209 204 193 199 196 183 199 200 196 188 188 194 183 193 202 199 195 198 184 187 214 145 186 190 208 192 194 200
186 185 195 208 191 202 216 201 218 217 209 216 186 241 206 212 164 228 167 196 182 175 189 196 195 191 203 195 193 192 189 189 205 197 187 207 210 210 198 193 197 200 205 196 212
200 208 198 195 222 220 211 204 228 215 248 304 208 247 207 211 195 213 120 207 196 203 188 192 193 196 196 179 199 199 200 201 196 202 202 196 198 199 216 208 213 192 211 211 217
205 195 209 209 206 235 229 214 237 217 306 290 265 257 237 224 222 218 219 217 209 198 193 207 195 198 195 194 194 188 195 204 209 205 203 204 199 199 199 207 205 201 210 224 233
224 202 217 210 222 200 217 242 241 316 295 306 264 254 241 225 225 219 208 217 218 218 211 212 202 204 205 196 197 199 201 190 191 197 201 196 188 103 180 211 215 206 225 236 274
208 224 222 232 215 220 242 328 321 316 294 286 276 257 234 235 223 225 220 210 213 204 214 204 209 208 214 207 205 204 204 206 207 201 207 219 175 220 138 222 228 239 240 266 282
221 228 216 232 237 237 272 314 312 309 318 286 282 269 250 234 231 228 217 212 219 213 206 217 222 205 206 206 209 208 212 212 207 197 197 201 230 197 229 205 211 235 202 294 407
222 227 248 241 234 303 304 307 314 307 309 293 275 268 260 252 241 229 236 214 217 207 214 225 212 220 214 200 206 206 215 212 212 208 221 226 220 233 218 217 218 230 284 398 376
220 213 243 229 300 265 301 305 298 304 304 297 292 269 267 257 251 230 243 226 220 215 211 212 211 221 226 217 212 213 221 207 218 208 209 220 243 219 220 156 268 285 354 365 266
234 270 256 304 315 303 307 301 308 303 338 125 277 287 267 258 261 232 245 238 224 219 224 227 220 206 216 224 219 223 218 219 218 216 217 231 226 149 204 250 284 257 288 271 246
231 240 270 316 307 306 312 299 347 341 349 337 314 288 271 282 257 255 247 235 236 228 228 225 227 237 220 214 222 220 226 228 224 216 213 210 235 145 206 288 262 371 344 259 239
249 272 311 319 306 290 311 330 320 364 395 369 279 222 281 273 280 253 255 251 238 232 234 238 240 237 240 239 229 220 215 220 238 240 239 215 235 186 182 272 283 342 288 235 224
276 309 312 305 298 309 312 302 355 380 413 444 457 332 314 282 278 264 263 247 246 250 239 237 237 233 232 234 238 237 234 231 238 244 241 232 245 250 177 273 339 321 215 223 238
284 312 301 292 320 305 329 342 351 377 380 385 424 442 341 305 284 269 272 266 259 253 236 238 226 223 229 230 232 233 233 231 237 241 234 238 273 248 170 320 336 285 229 237 235
310 301 292 274 303 322 330 347 371 350 353 374 392 467 365 332 296 284 270 270 271 264 256 251 243 236 236 236 231 228 228 237 234 234 238 261 280 224 285 313 286 240 231 235 217
301 288 273 297 320 326 365 382 350 338 339 354 375 286 293 331 326 288 277 265 263 263 252 251 242 238 237 236 240 237 233 234 245 247 257 278 252 228 295 308 255 237 231 224 209
293 285 297 315 331 327 400 357 336 324 331 345 367 400 415 368 302 330 282 265 263 252 261 260 254 249 251 253 239 245 243 250 255 181 271 247 257 358 285 295 247 230 224 224 209
310 297 307 340 328 446 362 333 319 317 345 348 365 361 398 384 327 273 310 278 262 257 252 249 248 251 254 257 260 259 257 259 267 267 255 253 245 278 299 267 240 220 214 222 211
296 317 334 386 447 372 338 311 318 358 348 357 367 352 386 372 328 338 277 310 280 260 254 248 240 239 243 247 248 251 249 250 257 255 247 256 297 275 296 247 226 207 212 219 212
323 413 477 404 358 329 310 339 362 420 421 386 358 343 360 346 331 314 321 300 302 284 258 255 245 247 243 246 250 246 246 251 247 251 263 261 296 273 273 228 218 210 209 214 207
335 399 358 338 319 308 374 455 442 415 395 372 350 348 340 334 322 304 305 292 303 304 283 258 261 251 246 244 244 248 246 252 254 260 265 281 286 264 229 219 207 211 208 208 209
358 336 325 313 301 368 454 438 415 388 373 360 341 337 338 334 337 316 309 314 288 298 307 292 282 266 257 253 254 248 252 258 264 269 258 310 281 241 227 217 207 211 207 203 206
331 320 309 294 369 423 411 395 391 379 366 344 334 369 340 323 325 328 316 309 331 278 323 306 292 278 276 279 263 262 256 263 273 263 276 269 246 234 232 215 209 210 203 200 202
Wind_Speed
63 64 71 74 70 74 74 75 50 66 48 45 55 70 70 70 73 73 74 68 70 74 77 74 82 84 74 76 72 64 79 73 78 86 84 67 76 76 74 69 64 54 57 56 57
67 70 71 73 72 76 76 68 75 66 53 74 52 63 74 74 77 71 73 76 69 91 75 83 84 80 75 82 80 79 80 84 80 76 78 77 76 80 71 67 65 55 55 59 64
73 77 76 79 81 81 79 81 77 83 63 82 50 77 69 78 76 77 74 86 76 81 78 89 78 89 81 82 81 80 78 78 78 79 77 79 79 77 78 73 57 58 60 61 61
78 80 78 83 84 87 86 83 85 85 87 83 68 58 63 73 81 80 77 77 82 85 83 84 85 84 78 80 82 79 84 86 86 80 76 78 77 78 74 62 63 62 63 63 62
83 87 86 85 89 90 87 89 86 92 81 72 81 71 69 65 81 80 82 85 84 87 88 86 87 86 86 86 85 81 82 86 85 84 81 78 76 82 46 71 70 70 63 67 74
88 84 87 85 91 88 93 95 91 85 88 81 88 64 63 67 71 78 78 91 81 83 90 89 91 89 89 90 89 86 86 86 82 86 80 80 80 76 83 77 68 73 73 68 71
85 85 92 94 90 91 95 96 96 91 81 62 81 65 74 76 72 77 62 91 94 92 92 93 93 92 90 81 91 89 89 88 90 90 87 79 72 77 82 79 82 68 76 71 67
85 91 91 92 95 96 94 98 93 91 62 61 62 70 71 81 82 84 81 89 94 96 95 96 95 93 93 93 91 89 87 89 89 90 88 85 66 63 72 69 71 73 77 82 77
90 91 96 94 94 86 93 90 86 62 62 69 67 72 74 84 87 88 91 87 91 93 96 96 95 95 94 92 93 92 90 81 81 86 86 77 47 36 66 80 79 73 76 76 72
89 97 95 103 92 91 99 65 67 63 63 64 68 74 76 85 89 89 91 91 90 88 93 96 95 92 91 95 94 94 89 87 91 93 92 87 48 77 42 83 76 69 71 72 56
103 105 94 105 103 97 92 64 65 59 67 67 65 71 84 85 92 91 95 94 92 93 95 94 95 94 97 95 91 92 92 92 93 84 74 58 77 43 76 62 62 69 53 56 44
103 109 111 110 97 78 71 67 64 61 56 65 64 65 81 90 89 91 92 99 99 94 99 93 96 96 99 88 92 90 93 92 93 90 89 88 53 74 67 66 65 59 56 42 38
110 93 113 98 83 96 76 72 71 68 59 55 72 69 77 87 88 93 91 102 102 100 99 95 92 93 94 99 93 89 92 88 91 84 63 75 79 70 68 43 68 59 42 29 42
116 105 109 79 74 78 79 76 74 67 67 26 65 76 77 82 80 96 93 98 100 97 99 97 95 90 93 95 95 92 92 91 87 84 76 79 61 62 69 68 61 41 32 36 41
105 107 99 75 78 79 80 77 73 67 62 57 68 70 76 84 82 88 97 94 94 95 95 92 94 93 96 90 92 90 90 89 84 67 55 58 77 51 68 60 46 33 26 44 36
104 100 80 80 78 82 78 72 66 59 51 53 56 45 76 81 83 85 89 89 92 92 90 87 82 86 86 88 91 86 81 81 81 79 76 74 63 62 48 48 36 30 48 45 39
102 82 80 82 82 78 74 70 60 50 43 36 33 60 72 81 83 81 90 86 86 90 92 89 85 85 83 83 83 82 80 78 75 73 69 72 61 51 29 43 38 44 37 49 46
95 78 84 85 76 74 69 62 55 42 40 39 34 33 65 76 78 80 83 88 86 91 87 85 84 80 82 81 78 76 73 74 72 69 65 54 51 43 38 39 36 49 46 42 48
77 80 85 84 77 70 65 59 41 42 37 34 37 30 53 66 79 79 78 80 81 84 91 86 83 84 82 80 78 73 70 70 66 62 58 53 45 36 46 36 50 48 46 46 40
79 84 83 78 74 68 57 40 40 43 36 38 36 23 32 61 70 76 77 77 76 78 80 81 82 81 80 80 80 77 71 65 69 63 54 41 42 43 42 39 54 50 47 47 41
79 83 80 76 68 66 42 40 39 42 40 37 35 34 38 49 66 67 75 76 77 74 70 72 75 80 81 79 71 71 69 65 60 36 48 33 35 29 42 46 55 50 50 52 42
78 79 79 70 67 41 42 41 41 46 45 36 31 33 39 44 59 62 69 79 76 75 70 69 65 66 64 60 56 55 54 52 48 45 29 30 33 36 44 56 55 52 53 55 46
76 80 76 65 39 39 41 44 44 46 42 34 30 32 40 44 52 51 65 66 78 76 72 68 66 65 62 58 53 48 46 43 40 35 31 27 32 42 51 57 55 54 51 50 44
77 58 38 35 37 40 42 46 43 31 30 31 30 32 43 47 53 56 55 62 70 78 73 72 68 67 64 59 54 50 47 46 37 33 29 25 37 53 56 55 53 51 51 48 48
71 37 36 39 41 43 42 19 24 24 30 30 31 35 48 52 53 56 60 64 60 67 76 70 73 69 65 58 53 52 49 46 40 33 25 31 42 60 56 54 51 53 55 50 50
41 41 40 41 43 40 10 7 15 22 30 30 35 40 53 50 52 58 60 59 58 59 64 70 73 69 71 64 59 53 50 46 42 34 27 34 51 60 60 56 55 57 58 50 50
42 41 41 39 38 9 15 11 8 25 30 29 34 40 57 53 54 59 59 58 51 54 54 57 61 63 64 66 63 60 51 47 44 35 32 50 69 62 63 59 58 59 58 54 51
Wind_Direction
288 280 284 285 285 287 288 288 278 274 279 291 263 253 254 253 254 254 255 252 252 255 255 253 258 261 257 257 255 260 264 263 264 269 270 273 272 273 276 272 282 284 283 284 281
287 286 287 285 287 286 283 281 282 272 272 265 278 255 251 251 253 252 254 254 253 256 256 255 256 257 253 258 260 260 262 263 265 267 269 273 274 274 276 281 280 273 274 275 275
293 289 289 285 285 283 285 282 282 275 273 275 273 265 249 248 250 251 248 255 250 254 253 258 252 260 255 262 260 259 260 259 266 267 268 270 275 281 276 277 272 278 276 278 284
288 291 290 283 286 282 284 284 281 279 283 270 273 265 254 245 247 247 250 250 253 254 251 253 258 259 260 258 257 260 261 262 263 270 273 277 273 273 279 282 278 276 284 286 279
283 288 284 286 279 284 283 281 277 279 271 265 275 256 251 250 244 245 246 247 246 251 253 254 255 257 259 260 262 262 263 268 269 268 268 269 272 272 283 275 280 287 281 283 286
281 286 280 285 280 285 280 277 274 279 272 273 274 254 252 251 261 244 254 247 248 250 252 251 251 253 253 258 260 260 262 265 265 266 269 268 271 277 276 280 285 287 288 280 285
282 288 281 280 293 288 277 278 278 276 280 260 264 246 254 247 259 246 266 245 249 246 250 249 252 254 255 259 259 260 262 264 266 266 269 271 275 277 278 282 285 277 292 286 284
282 278 284 281 281 298 289 285 282 281 273 258 246 236 232 241 242 243 242 243 244 249 250 248 250 252 254 257 259 261 264 265 263 266 269 272 276 283 282 286 288 289 290 290 283
293 283 289 284 288 287 283 292 289 277 268 259 241 235 232 236 239 238 241 242 242 244 248 250 251 251 253 256 258 260 261 263 266 269 271 272 277 269 283 290 291 288 288 285 285
283 295 294 297 287 290 301 278 274 273 264 259 246 237 230 235 238 238 238 241 243 249 244 250 251 253 254 255 257 259 260 263 264 267 270 275 280 285 276 290 290 290 284 286 277
298 301 294 300 302 304 305 286 276 275 267 256 251 240 232 232 233 236 236 240 240 242 246 247 246 252 252 254 257 260 262 264 266 268 273 283 281 275 282 285 289 290 280 283 275
301 303 305 304 302 304 297 289 276 277 260 262 248 240 238 234 231 234 235 240 240 247 244 245 249 247 250 258 257 258 260 264 265 272 275 276 286 284 290 291 284 285 285 277 256
301 300 304 302 304 305 294 290 287 281 278 256 258 240 237 239 230 236 234 236 239 244 248 249 250 250 251 254 257 259 258 264 265 272 275 282 278 289 291 264 288 283 270 255 215
304 306 305 301 292 293 290 292 289 285 275 293 249 251 236 237 236 233 234 234 237 241 245 248 249 254 254 253 256 257 260 263 266 271 277 281 286 264 286 287 279 268 247 223 213
305 305 304 301 297 294 293 293 289 284 279 264 250 240 244 239 236 233 236 235 237 240 244 247 250 252 252 256 256 259 262 264 267 270 273 277 281 266 285 272 265 245 223 203 194
305 304 304 299 297 298 297 294 292 289 284 264 254 244 234 240 237 234 236 238 238 242 245 248 246 247 252 253 255 259 264 267 268 270 272 270 286 261 247 264 248 219 191 201 197
304 304 301 299 300 300 299 298 296 293 284 276 265 241 233 233 235 235 236 236 237 241 242 244 243 247 250 252 255 258 260 265 268 270 273 276 285 284 271 282 223 190 206 216 188
304 304 299 300 303 301 301 299 297 287 277 270 263 237 234 230 231 234 236 237 239 238 241 243 246 248 251 253 255 256 259 262 267 271 274 282 284 252 262 264 207 194 214 196 191
306 301 300 303 302 303 301 300 285 279 276 269 258 233 232 230 229 229 232 236 237 237 238 240 241 246 251 252 255 257 259 263 266 271 276 279 271 247 266 235 193 206 208 199 205
303 301 302 302 304 303 299 285 278 277 274 271 255 241 226 226 228 229 229 232 236 237 238 239 240 244 247 249 252 254 258 262 265 268 271 267 251 240 241 211 200 206 203 206 209
302 302 302 304 304 302 286 280 280 278 276 273 258 237 212 215 227 227 229 229 230 235 236 239 242 245 247 249 252 254 255 258 260 257 263 238 251 250 225 195 201 204 202 207 206
306 302 303 304 302 286 280 280 281 279 278 268 250 237 213 198 221 226 224 229 229 230 232 234 238 241 245 247 247 248 249 251 251 254 244 242 236 214 209 190 199 200 205 205 204
305 305 305 302 290 283 283 284 284 274 269 256 237 223 212 200 214 220 225 226 229 229 231 232 235 238 243 246 246 247 249 250 248 251 231 231 258 207 200 194 200 211 207 205 205
308 306 296 297 290 289 287 288 281 255 228 221 219 212 192 192 200 214 217 224 224 227 229 229 232 235 238 242 244 244 246 247 242 243 235 235 220 199 194 199 201 207 211 206 204
312 308 303 299 294 294 297 287 235 228 214 206 203 202 200 203 208 215 222 224 222 223 227 230 231 232 235 238 241 242 245 246 247 240 217 242 201 198 199 201 205 206 215 211 208
312 308 303 300 301 303 92 101 207 208 205 197 199 194 198 199 198 203 217 220 223 222 224 227 231 233 235 237 239 240 243 245 246 239 212 216 193 199 200 199 202 207 215 215 214
308 305 301 301 310 144 118 137 190 203 200 189 199 197 193 202 206 208 210 222 210 225 221 226 229 231 235 238 241 243 240 245 249 215 218 196 198 200 200 200 202 207 215 219 218